Weather in Grachi

Russia / Astrakhan Oblast     47°47′44″N   46°16′31″E
temp.,
°C
wind,
m/s
gust,
m/s
humid.,
%
clouds,
%
prec.,
mm/h
press.,
hPa
HPBL,
m
5 march, fri
fri501:00+1sw816710 0.0 1016436
04:00+1sw816800 0.0 1016494
07:00+1sw9178520 0.0 1015468
10:00+4wsw10157011 0.0 1015720
13:00+7wsw1013577 0.0 10141148
16:00+8wsw9125633 0.0 10141330
19:00+7wsw51169100 0.0 1015533
22:00+5sw51175100 0.0 1016390
6 march, sat
sat601:00+5sw51078100 0.0 1016347
04:00+4sw5107299 0.0 1016249
07:00+2sw6118170 0.0 1015270
10:00+7sw8136060 0.0 1015583
13:00+10sw91251100 0.0 10131246
16:00+11wsw10135096 0.0 10111635
19:00+8sw51159100 0.0 1009299
22:00+7wsw91388100 0.8 1008609
7 march, sun
sun701:00+1nnw81093100 6.9 1008367
04:00−2nnw81190100 7.8 1011669
07:00−2nw71082100 0.3 1015770
10:00−1nw577599 0.3 1018780
13:00+1wnw677199 0.2 1019994
16:00+1wnw675794 0.4 10201448
19:00−1wsw356250 0.0 1019110
22:00−1sw5106138 0.0 1019366
8 march, mon
mon801:00−1sw8146116 0.0 1018656
04:00−1wsw815678 0.0 1017680
07:00−1sw815720 0.0 1016688
10:00+2wsw1014610 0.0 1016975
13:00+5wsw1114538 0.0 10141561
16:00+6wsw10135254 0.0 10131744
19:00+3sw7146598 0.0 1012477
22:00+2sw7157298 0.0 1013602
9 march, tue
tue901:00+1wsw81574100 0.0 1013545
04:000wsw7138599 0.0 1013539
07:00−2nnw487794 0.3 1015466
10:00−1n346596 0.3 1016602
13:000nnw2244100 0.0 1016915
16:00+4wsw71186100 0.3 1012828
19:00+4sw51264100 0.2 1010495
22:00+1w5797100 2.5 1011317